Погода в Вологде

Хотите узнать прогноз погоды в Вологде? Тогда Вам сюда: Погода в Вологде

Поиск расширенной информации на нашем сайте:

Полезная информация:

Новости сайта



02.01.2020
Опубликован Долгосрочный прогноз погоды по городам России и ближнего зарубежья на январь 2020 года.
Карты: Прогноз на январь и февраль 2020 года, Сравнение прогнозируемой аномалии приземной температуры воздуха на январь 2020 года по разным моделям.




Погода в Вологде - сегодня

Время (UTC), дата Ветер
(°,м/с) 
Видим.   Явления Облачность Т
(°С)
Тd
(°С)
f(%) Тe
(°С)
Pmin
(гПа)
dP
(гПа)
Po
(мм)
O2
(г/м3)
Тmin Tmax R s Состояние
почвы
00 19.01.20 260 (З) 20000 м    9/9 660 м 
[Sc]
-0.1 -2.6 83 -2  1016.3  0.9  750  303           
03 19.01.20 240 (ЮЗ) 20000 м    10/10 600 м 
[Sc]
+0.3 -2.1 84 -1  1017.2  0.9  751  302  -1.3      равномерный
мокрый или
старый снег
100% 
06 19.01.20 250 (З) 20000 м  {снег}  10/10 570 м 
[Sc]
+0.7 -1.4 86 1018  0.9  751  302           
09 19.01.20 240 (ЮЗ) 20000 м    10/10 540 м 
[Sc]
+1 -1.3 85 1018.8  0.9  752  302           
12 19.01.20 240 (ЮЗ) 20000 м    10/10 1140 м 
[Sc]
+1.3 -1.2 83 1019  0.1  752  302           
15 19.01.20 240 (ЮЗ) 20000 м    10/10 360 м 
[Sc]
+1.2 -1.2 84 -1  1019  752  302    +1.4  0.0     
18 19.01.20 240 (ЮЗ) 20000 м    10/10 630 м 
[Sc]
+1.2 -1.5 82 -1  1018.5  -0.5  752  302           
21 19.01.20 240 (ЮЗ) 20000 м  снежные кристаллы  10/10 480 м 
[Sc]
+0.8 -0.7 90 -2  1017.4  -1.1  751  302           
00 20.01.20 250 (З) 10 км  слаб. дождь{снег}  10/9 480 м средняя 
[Frnb|As op]
+1.1 -0.1 92 1016.6  -0.8  750  301           
03 20.01.20 280 (З) 20000 м  снежные кристаллы{дождь}  10/10 660 м 
[Sc]
+0.5 -0.9 90 -1  1016.9  0.3  750  302  +0.5    равномерный
мокрый или
старый снег
100% 
06 20.01.20 300 (СЗ) 10 км  слаб. снег{дождь}  10/10 500 м 
[Sc]
+0.3 -1.1 90 -1  1017.7  0.7  751  302  +0.3         
09 20.01.20 290 (З) 20000 м  в посл. час снег  10/10 480 м 
[Sc]
+0.3 -1.8 86 -1  1018.2  0.5  751  303           
12 20.01.20 270 (З) 20000 м  {снег}  9/9 960 м 
[Sc]
+0.4 -1.6 86 1017.2  -1  751  302           
15 20.01.20 270 (З) 20000 м  слаб. снег  10/10 480 м 
[Sc]
-0.1 -1.6 90 -2  1016.1  -1.1  750  302    +0.5  0.1     
18 20.01.20 260 (З) 20000 м  {снег}  10/10 720 м 
[Sc]
-0.4 -2.8 84 -1  1014  -2  748  302           
21 20.01.20 230 (ЮЗ) 10 км  слаб. снег  10/10 300 м 
[Frnb|Ns]
-0.3 -1.3 93 -1  1011  -3  746  301           
00 21.01.20 230 (ЮЗ) 10 км  слаб. снег  10/10 330 м 
[Frnb|Ns]
+0.3 -1 91 1007.2  -3.7  743  299           
03 21.01.20 220 (ЮЗ) 2000 м  снег  10/10 300 м 
[Frnb|Ns]
+0 -0.8 94 -1  1002.1  -5  739  298  -0.8    равномерный
мокрый или
старый снег
100% 
06 21.01.20 240 (ЮЗ) 4000 м  снег  10/10 300 м 
[Frnb|Ns]
+0.3 -0.4 95 -2  997.7  -4.3  736  296           
09 21.01.20 260 (З) 10 км  слаб. дождь{снег}  10/10 360 м 
[Frnb|Ns]
+1.9 +0.6 91 994.9  -2.7  734  294           
12 21.01.20 260 (З) 10 км  слаб. дождь{снег}  10/10 330 м 
[Frnb|Ns]
+2.7 +1.5 92 +1  992.7  -2.1  733  292           
15 21.01.20 290 (З) 20000 м  {дождь}  9/6 600 м средняя 
[Sc|Ac trans]
+2.7 +0.9 88 +1  991.3  -1.4  732  292    +2.8     
18 21.01.20 290 (З) 20000 м  {дождь}  10/10 630 м 
[Sc]
+2.4 -0.4 82 990.2  -1.1  731  292           
21 21.01.20 300 (СЗ) 6-10{12}  20000 м    10/10 600 м 
[Sc]
+1.4 -2 78 -2  990.5  0.2  731  293           
00 22.01.20 300 (СЗ) 7-12{15}  20000 м    9/9 720 м 
[Sc]
+0.5 -6.3 60 -3  990.8  0.3  731  295           
Время (UTC), дата Ветер
(°,м/с) 
Видим.   Явления Облачность Т
(°С)
Тd
(°С)
f(%) Тe
(°С)
Pmin
(гПа)
dP
(гПа)
Po
(мм)
O2
(г/м3)
Тmin Tmax R s Состояние
почвы

Для получения пояснительной информации подведите курсор к названию столбца.

ПОГОДА в Вологде - архив

Всё, что Вы хотите узнать о погоде в Вологде - удобно и подробно!

Выберите нужную дату (начиная с 1 января 2019* года) и нажмите кнопку "Найти".
Будут отображены архивные сводки погоды по пункту Вологда, начиная с указанной даты.


Отображать данные в формате CSV (для использования в таблицах Excel)


Внимание! Наш архив погоды предназначен исключительно для личного некоммерческого использования в познавательных целях. Если Вам необходимы официальные справки о состоянии погоды (для производственных, юридических, коммерческих и т.п. целей), обращайтесь в органы Росгидромета.

*Примечание: данная дата относится к архиву по метеостанциям СССР (Россия, СНГ, Балтия).
Архив по метеостанциям Зарубежной Европы и Азии (кроме Китая) хранится 10 дней, по другим регионам земного шара (Китай, Африка, Америка, Австралия, Океания) - 1 день.

Вологда - район местоположения метеостанции


Название, широта, долгота, высота метеостанции:
Вологда (город) 59.3°ш. 39.9°д. 130 м над ур. моря [Российская Федерация]

Дополнительная информация

В oтличие oт бoльшинства пoгoдных сайтoв мы публикуем пoдрoбную метеoинфoрмацию в детальнoм прoфессиoнальнoм фoрмате.

Характеристики температуры и влажнoсти вoздуха измеряются на высoте 2 м в тени вдали oт зданий и деревьев.
Скoрoсть ветра измеряется на высoте 10 м (на урoвне рoста челoвека скoрoсть ветра ниже в 1.5-2 раза). Если метеoстанция нахoдится в гoрoде или в лесу, тo скoрoсть ветра занижена на 2-4 м/с пo сравнению с oткрытым местoм. Скoрoсть ветра над акватoриями крупных рек и oзёр, а также на вершинах хoлмoв на 2-5 м/с выше, чем в oбычных услoвиях.
Атмoсфернoе давление в разных тoчках местнoсти мoжет значительнo oтличаться oт давления на метеoстанции, в зависимoсти oт услoвий рельефа (при пoдъёме на 10 м давление пoнижается примернo на 1 мм рт.ст.).